TimeCDT,TemperatureF,Dew PointF,Humidity,Sea Level PressureIn,VisibilityMPH,Wind Direction,Wind SpeedMPH,Gust SpeedMPH,PrecipitationIn,Events,Conditions,WindDirDegrees,DateUTC
12:53 AM,45.0,42.1,90,30.00,10.0,WNW,5.8,-,N/A,,Clear,290,2013-04-28 05:53:00
1:53 AM,44.1,41.0,89,29.96,10.0,South,4.6,-,N/A,,Clear,170,2013-04-28 06:53:00
2:53 AM,44.1,42.1,93,29.95,10.0,Calm,Calm,-,N/A,,Clear,0,2013-04-28 07:53:00
3:53 AM,39.0,39.0,100,29.95,8.0,WSW,4.6,-,N/A,,Clear,250,2013-04-28 08:53:00
4:53 AM,41.0,39.9,96,29.95,5.0,West,3.5,-,N/A,,Clear,280,2013-04-28 09:53:00
5:43 AM,41.0,41.0,100,29.94,1.8,West,3.5,-,N/A,,Clear,260,2013-04-28 10:43:00
5:53 AM,42.1,42.1,100,29.94,2.5,Calm,Calm,-,N/A,,Clear,0,2013-04-28 10:53:00
6:14 AM,42.8,42.8,100,29.94,0.8,Calm,Calm,-,N/A,,Clear,0,2013-04-28 11:14:00
6:53 AM,39.0,39.0,100,29.94,0.8,Calm,Calm,-,N/A,,Clear,0,2013-04-28 11:53:00
7:03 AM,39.2,39.2,100,29.93,1.5,Calm,Calm,-,N/A,,Clear,0,2013-04-28 12:03:00
7:10 AM,41.0,39.2,93,29.93,3.0,SE,3.5,-,N/A,,Clear,130,2013-04-28 12:10:00
8:53 AM,54.0,48.0,80,29.93,10.0,WSW,3.5,-,N/A,,Clear,240,2013-04-28 13:53:00
9:53 AM,61.0,48.9,64,29.91,10.0,SW,10.4,-,N/A,,Clear,230,2013-04-28 14:53:00
10:53 AM,64.0,48.0,56,29.90,10.0,South,9.2,19.6,N/A,,Clear,190,2013-04-28 15:53:00
11:53 AM,66.0,48.9,54,29.88,10.0,South,10.4,-,N/A,,Clear,180,2013-04-28 16:53:00
12:53 PM,69.1,48.0,47,29.86,10.0,South,10.4,19.6,N/A,,Clear,180,2013-04-28 17:53:00
1:53 PM,71.1,48.9,45,29.84,10.0,South,13.8,18.4,N/A,,Clear,180,2013-04-28 18:53:00
2:53 PM,72.0,48.0,43,29.82,10.0,SW,11.5,17.3,N/A,,Clear,220,2013-04-28 19:53:00
3:53 PM,73.0,48.0,41,29.80,10.0,SSW,12.7,19.6,N/A,,Clear,200,2013-04-28 20:53:00
4:53 PM,73.9,48.9,41,29.77,10.0,SSW,12.7,-,N/A,,Clear,210,2013-04-28 21:53:00
5:53 PM,73.0,48.9,42,29.76,10.0,South,12.7,19.6,N/A,,Clear,180,2013-04-28 22:53:00
6:53 PM,73.0,48.9,42,29.75,10.0,SSW,12.7,-,N/A,,Clear,200,2013-04-28 23:53:00
7:53 PM,69.1,48.9,49,29.75,10.0,South,10.4,-,N/A,,Clear,190,2013-04-29 00:53:00
8:53 PM,64.9,48.9,56,29.77,10.0,South,9.2,-,N/A,,Clear,180,2013-04-29 01:53:00
9:53 PM,63.0,50.0,63,29.78,10.0,South,11.5,-,N/A,,Clear,180,2013-04-29 02:53:00
10:53 PM,62.1,50.0,65,29.77,10.0,South,13.8,-,N/A,,Clear,180,2013-04-29 03:53:00
11:53 PM,62.1,50.0,65,29.78,10.0,South,10.4,-,N/A,,Clear,190,2013-04-29 04:53:00